[[{"header":{"parameterUnit":"m.s-1","parameterCategory":2,"la1":30.2991,"la2":30.254,"lo1":-89.0895,"lo2":-89.0444,"dy":0.0017,"dx":0.0017,"nx":28,"ny":28,"refTime":"2024-02-22T03:00:00:Z","depth":"0","parameterNumber":2,"parameterNumberName":"U-component_of_CURRENTS"},"data":[0,0,0,0,0,0,0,0,0,0,0,0,0,0,0,0,0,0,0,0,0,0,0,0,0,0,0,0,0,0,0,0,0,0,0,0,0,0,0,0,0,0,0,0,0,0,0,0,0,0,0,0,0,0,0,0,0,0,0.2377,0.2377,0,0.2351,0.235,0.235,0.2321,0.2321,0.2321,0.2321,0.2291,0.2291,0.229,0,0,0,0,0,0,0,0,0,0,0,0,0,0.2406,0.2406,0.2377,0.2377,0.2376,0.2351,0.235,0.235,0.2321,0.2321,0.2321,0.232,0.2292,0.2291,0.229,0,0,0,0,0,0,0,0,0,0,0,0,0,0.2387,0.2406,0.2377,0.236,0.2359,0.2351,0.235,0.235,0.2322,0.2321,0.2321,0.232,0.2292,0.2291,0.229,0.2294,0,0,0.2288,0.2288,0,0,0,0,0,0,0,0,0.2388,0.2385,0.2363,0.2361,0.236,0.234,0.235,0.2331,0.2322,0.2334,0.2321,0.232,0.2309,0.2307,0.23,0.2292,0.2291,0.2288,0.2287,0.2287,0.2287,0,0,0,0,0,0,0,0.2389,0.2387,0.2365,0.2363,0.2361,0.2356,0.2352,0.2346,0.2323,0.2333,0.2331,0.2331,0.2308,0.2301,0.23,0.2291,0.2288,0.2287,0.2287,0.2286,0.2317,0.2318,0,0,0,0,0,0,0.2396,0.2388,0.2366,0.2364,0.2375,0.2356,0.2352,0.2346,0.2323,0.2319,0.2331,0.233,0.2303,0.2301,0.2298,0.2326,0.2287,0.2286,0.2286,0.2316,0.2317,0.2319,0,0,0,0,0,0,0.2396,0.2394,0.2367,0.2377,0.2373,0.2356,0.2349,0.2345,0.2343,0.2322,0.2318,0.2333,0.2302,0.23,0.2302,0.2324,0.2286,0.2285,0.2314,0.2316,0.2318,0.2365,0,0,0,0,0,0,0.2397,0.2394,0.2393,0.2377,0.2373,0.2367,0.2349,0.2345,0.2344,0.2341,0.2322,0.2319,0.2302,0.2304,0.2302,0.2322,0.2285,0.2313,0.2315,0.2317,0.2362,0.2369,0.2374,0,0,0,0,0,0.2398,0.2398,0.2393,0.2391,0.2372,0.2367,0.2365,0.235,0.2345,0.2346,0.2337,0.232,0.2318,0.2304,0.2301,0.2322,0.2311,0.2314,0.2317,0.2359,0.2367,0.2374,0,0,0,0,0,0,0.2406,0.2395,0.2389,0.2384,0.238,0.2363,0.2363,0.2357,0.2351,0.235,0.233,0.2326,0.2343,0.2327,0.2312,0.234,0.2314,0.2317,0.2348,0.2355,0.2361,0.2372,0.2284,0,0,0,0,0,0.241,0.2407,0.2397,0.2393,0.2393,0.2381,0.2379,0.2371,0.2363,0.236,0.2346,0.2342,0.2352,0.2348,0.2349,0.2356,0.2353,0.2371,0.2377,0.2382,0.2391,0.2411,0.242,0.2328,0.2328,0.2328,0,0,0.2409,0.2405,0.2402,0.2396,0.239,0.2392,0.2378,0.2378,0.2384,0.2359,0.2361,0.2363,0.2362,0.2376,0.2381,0.2363,0.2406,0.2386,0.239,0.2396,0.2415,0.2424,0.2432,0.233,0.233,0.2329,0,0,0.241,0.2407,0.2405,0.2408,0.2406,0.2403,0.2407,0.2396,0.2398,0.2404,0.2399,0.2416,0.2409,0.2419,0.2424,0.2465,0.2443,0.2464,0.2493,0.2513,0.2521,0.2527,0.2529,0.2535,0.2459,0.2459,0.2459,0,0.2411,0.2405,0.2405,0.2409,0.2412,0.2411,0.2414,0.242,0.2412,0.2422,0.2411,0.2436,0.2435,0.2469,0.2487,0.248,0.2478,0.2464,0.2521,0.2527,0.2533,0.2533,0.254,0.2462,0.2461,0.2461,0.2461,0,0.2409,0.2409,0.2411,0.2415,0.2423,0.2425,0.2437,0.2448,0.2452,0.2457,0.2491,0.2495,0.2507,0.2518,0.2516,0.2563,0.2543,0.2531,0.2501,0.2545,0.2542,0.2548,0.2465,0.2464,0.2464,0.2463,0,0,0.239,0.2406,0.2405,0.2409,0.2426,0.2429,0.2458,0.2479,0.2499,0.2509,0.2538,0.2572,0.2574,0.2582,0.2584,0.2606,0.265,0.2588,0.2588,0.2587,0.2681,0.2606,0.2604,0.2645,0.2646,0.2647,0.266,0,0.2384,0.2391,0.2404,0.2414,0.2418,0.2442,0.2466,0.2493,0.2517,0.2545,0.2577,0.2601,0.2598,0.2608,0.2635,0.2652,0.2669,0.2647,0.2641,0.2641,0.2566,0.261,0.2479,0.2473,0.2665,0.2666,0.2667,0,0.237,0.2379,0.2387,0.2413,0.2418,0.2431,0.2474,0.2498,0.2554,0.2575,0.2613,0.263,0.2679,0.2663,0.2711,0.2695,0.2695,0.2703,0.2703,0.2621,0.2577,0.2462,0.2476,0.2411,0.2675,0.2675,0.2674,0,0.2345,0.2364,0.237,0.2378,0.2411,0.2429,0.2452,0.2505,0.2531,0.2595,0.2618,0.267,0.269,0.2719,0.2733,0.2725,0.2775,0.2759,0.2689,0.2683,0.2565,0.2545,0.2512,0.279,0.279,0.279,0.279,0,0.2327,0.2329,0.2358,0.2361,0.2377,0.2412,0.2442,0.2479,0.2538,0.2566,0.2625,0.265,0.2706,0.2735,0.2748,0.2734,0.2782,0.2705,0.2688,0.2576,0.2558,0.2489,0.247,0.2791,0.2791,0.2791,0.2791,0,0.2292,0.231,0.2318,0.2353,0.2362,0.2376,0.2423,0.2445,0.2509,0.255,0.2569,0.2642,0.2674,0.2714,0.2755,0.2733,0.2655,0.2719,0.2575,0.254,0.2397,0.2385,0.2263,0.2206,0.2644,0.2642,0.2641,0,0.2272,0.2273,0.2303,0.2304,0.2316,0.2342,0.2355,0.242,0.2443,0.2532,0.2542,0.2599,0.2615,0.265,0.2628,0.2625,0.2578,0.2496,0.246,0.2378,0.2354,0.2282,0.224,0.2323,0.2319,0.2316,0.2313,0,0.2238,0.2251,0.226,0.2262,0.227,0.2283,0.2309,0.2325,0.2397,0.2423,0.2463,0.249,0.2517,0.2451,0.2446,0.2434,0.236,0.2428,0.2385,0.2137,0.2015,0.1954,0.2323,0.2284,0.2287,0.2289,0.2291,0.2292,0.2209,0.2206,0.2215,0.2205,0.2213,0.2211,0.219,0.2221,0.2235,0.224,0.2335,0.2309,0.2294,0.2263,0.2241,0.2109,0.2149,0.2036,0.204,0.1985,0.1886,0.2185,0.21,0.2102,0.2103,0.2105,0.2106,0,0.2149,0.2149,0.2151,0.213,0.2097,0.2131,0.2134,0.2091,0.2054,0.2084,0.2088,0.2029,0.1948,0.1933,0.1827,0.1741,0.1681,0.1693,0.1575,0.1565,0.1862,0.1805,0.16,0.16,0.16,0.16,0.16,0.16,0.2118,0.2088,0.2081,0.2006,0.1987,0.1919,0.1897,0.1853,0.1844,0.1755,0.1692,0.1701,0.1709,0.1616,0.1496,0.1467,0.1387,0.1283,0.1339,0.156,0.1593,0.1624,0.1566,0.1314,0.1314,0.0957,0.0954,0.0952]},{"header":{"parameterUnit":"m.s-1","parameterCategory":2,"la1":30.2991,"la2":30.254,"lo1":-89.0895,"lo2":-89.0444,"dy":0.0017,"dx":0.0017,"nx":28,"ny":28,"refTime":"2024-02-22T03:00:00:Z","depth":"0","parameterNumber":3,"parameterNumberName":"V-component_of_CURRENTS"},"data":[0,0,0,0,0,0,0,0,0,0,0,0,0,0,0,0,0,0,0,0,0,0,0,0,0,0,0,0,0,0,0,0,0,0,0,0,0,0,0,0,0,0,0,0,0,0,0,0,0,0,0,0,0,0,0,0,0,0,-0.0001,-0.0001,0,0.0001,0.0001,0.0001,-0.0009,-0.0009,-0.0009,-0.001,-0.0034,-0.0035,-0.0035,0,0,0,0,0,0,0,0,0,0,0,0,0,-0.0025,-0.0024,-0.0001,-0.0001,-0.0001,0.0001,0.0001,0.0001,-0.0009,-0.0009,-0.0009,-0.001,-0.0034,-0.0035,-0.0035,0,0,0,0,0,0,0,0,0,0,0,0,0,-0.0018,-0.0024,-0.0001,-0.0005,-0.0005,0.0001,0.0001,0.0001,-0.0009,-0.0009,-0.0009,-0.001,-0.0034,-0.0035,-0.0035,-0.0032,0,0,-0.0037,-0.0038,0,0,0,0,0,0,0,0,-0.0019,-0.0018,-0.0005,-0.0005,-0.0005,-0.0004,-0.0016,-0.0011,-0.0009,-0.0008,-0.001,-0.001,-0.0026,-0.0027,-0.0027,-0.0033,-0.0035,-0.0037,-0.0038,-0.0038,-0.0038,0,0,0,0,0,0,0,-0.0019,-0.0018,-0.0001,-0.0004,-0.0005,-0.0011,-0.001,-0.0015,-0.0016,-0.0008,-0.0009,-0.0007,-0.0026,-0.0026,-0.0027,-0.0035,-0.0037,-0.0038,-0.0038,-0.0039,-0.004,-0.004,0,0,0,0,0,0,-0.0017,-0.0018,-0.0001,-0.0001,-0.0012,-0.001,-0.0009,-0.0004,-0.0016,-0.0017,-0.0007,-0.0008,-0.0025,-0.0026,-0.0028,-0.0015,-0.0038,-0.0039,-0.0039,-0.004,-0.004,-0.004,0,0,0,0,0,0,-0.0017,-0.0015,-0.0001,-0.0009,-0.0008,-0.0009,-0.0004,-0.0004,-0.0003,-0.0014,-0.0017,-0.0005,-0.0025,-0.0027,-0.003,-0.0017,-0.0039,-0.0039,-0.0041,-0.004,-0.004,0.0004,0,0,0,0,0,0,-0.0018,-0.0015,-0.0011,-0.0009,-0.0007,0.001,-0.0003,-0.0004,-0.0001,-0.0002,-0.0013,-0.0016,-0.0025,-0.0029,-0.0031,-0.0018,-0.004,-0.0041,-0.0041,-0.004,0.0003,0.0006,0.001,0,0,0,0,0,-0.0019,-0.0008,-0.0011,-0.0009,-0.0001,0.0011,0.0011,0.0008,-0.0001,0.0006,-0.0005,-0.0015,-0.0026,-0.0029,-0.0031,-0.0018,-0.0042,-0.0041,-0.004,0.0001,0.0006,0.001,0,0,0,0,0,0,-0.0016,-0.0008,-0.0011,0.0001,0.0007,0.0009,0.0016,0.0011,0.0008,0.0005,-0.0011,-0.0013,-0.0011,-0.0022,-0.0025,-0.0018,-0.0036,-0.0035,-0.0004,0.0001,0.0004,0.0023,-0.0041,0,0,0,0,0,-0.0013,-0.0004,0.0002,0.0012,0.0016,0.0015,0.0018,0.0017,0.0015,0.0014,0.0004,-0.0006,-0.0009,-0.001,-0.0017,-0.0012,-0.0021,-0.0006,-0.0002,0.0001,0.0014,0.0011,0.0016,-0.0037,-0.0037,-0.0037,0,0,-0.001,-0.0004,0.0001,0.0013,0.0016,0.0032,0.0016,0.0026,0.004,0.0011,0.0022,0.0006,-0.0005,0.0001,0.0001,-0.0007,0.0009,0.0002,0.0005,0.0016,0.0012,0.0017,0.0022,-0.0036,-0.0037,-0.0037,0,0,0.0008,0.0008,0.0024,0.0032,0.0042,0.0044,0.0048,0.0052,0.0054,0.006,0.0044,0.0038,0.003,0.0029,0.0026,0.0045,0.0027,0.0039,0.0075,0.0072,0.0077,0.0081,0.0069,0.0071,0.0042,0.0042,0.0043,0,0.0011,0.0033,0.0031,0.005,0.0062,0.0052,0.0075,0.0079,0.008,0.0088,0.0069,0.0064,0.0047,0.0065,0.0069,0.0056,0.0047,0.0061,0.0078,0.0082,0.0085,0.0072,0.0074,0.0045,0.0044,0.0044,0.0044,0,0.0043,0.006,0.0072,0.0093,0.0105,0.0123,0.0129,0.0137,0.0132,0.0134,0.0144,0.0121,0.0118,0.0111,0.0096,0.0115,0.0098,0.0082,0.007,0.0093,0.0077,0.0079,0.0048,0.0047,0.0046,0.0046,0,0,0.0058,0.0088,0.0094,0.0114,0.0131,0.0148,0.0169,0.0193,0.0216,0.0202,0.023,0.0212,0.0194,0.0189,0.0167,0.0165,0.0171,0.0137,0.0136,0.0131,0.0159,0.0148,0.0149,0.0158,0.0159,0.0159,0.0136,0,0.0087,0.0131,0.0139,0.0184,0.0209,0.0211,0.0238,0.0254,0.0259,0.0281,0.0262,0.0274,0.0226,0.0227,0.0215,0.0189,0.0178,0.0178,0.0133,0.0132,0.0124,0.0152,0.0169,0.015,0.0138,0.0138,0.0138,0,0.0122,0.0148,0.0195,0.0239,0.0251,0.0276,0.0319,0.0341,0.0363,0.0367,0.0367,0.0349,0.0346,0.03,0.0261,0.0263,0.0215,0.0187,0.0185,0.0165,0.0125,0.0125,0.0153,0.0108,0.014,0.014,0.014,0,0.0143,0.0191,0.0232,0.0246,0.0289,0.0315,0.034,0.0369,0.0404,0.0426,0.0451,0.0428,0.043,0.0373,0.0299,0.0284,0.0257,0.0224,0.0167,0.0164,0.0167,0.0164,0.0153,0.0195,0.0196,0.0196,0.0196,0,0.0176,0.021,0.0247,0.0271,0.0332,0.0347,0.0411,0.0431,0.0473,0.0532,0.0497,0.0535,0.0451,0.0419,0.0335,0.0262,0.0277,0.0186,0.0166,0.018,0.0179,0.0129,0.0086,0.0195,0.0195,0.0195,0.0195,0,0.0198,0.0218,0.027,0.0321,0.0344,0.0388,0.0463,0.051,0.0539,0.0615,0.0628,0.0625,0.059,0.0494,0.0411,0.0319,0.0214,0.0206,0.0225,0.0208,0.011,0.0068,0.0036,0.0013,0.0146,0.0146,0.0145,0,0.0213,0.024,0.0306,0.0345,0.0373,0.044,0.0492,0.054,0.0598,0.0678,0.0723,0.0714,0.0726,0.0592,0.0438,0.0294,0.0221,0.0199,0.0171,0.0122,0.0061,0.0041,0.0023,0.0183,0.0183,0.0183,0.0183,0,0.0243,0.0263,0.0306,0.0384,0.0445,0.0523,0.0602,0.0661,0.0732,0.0805,0.0891,0.0909,0.0789,0.0672,0.0467,0.0352,0.0176,0.0195,0.0147,0.0098,0.0076,0.0039,0.0171,0.0184,0.0184,0.0184,0.0184,0.0184,0.0265,0.03,0.0354,0.0432,0.0505,0.0604,0.0676,0.077,0.0882,0.1003,0.1009,0.106,0.088,0.0616,0.0458,0.0194,0.0184,0.0115,0.007,0.0058,0.0038,0.0169,0.0157,0.0157,0.0157,0.0157,0.0157,0,0.0294,0.0335,0.0401,0.0496,0.058,0.0617,0.075,0.0835,0.0979,0.1086,0.1164,0.1115,0.089,0.0636,0.028,0.0108,0.0047,0.0014,-0.0004,-0.0017,0.0107,0.0112,0.0089,0.0089,0.0089,0.0089,0.0089,0.0089,0.0311,0.0373,0.0408,0.0543,0.0614,0.0737,0.0818,0.0955,0.106,0.1205,0.125,0.1258,0.108,0.0499,0.0111,0.0004,-0.0097,-0.0121,-0.0174,-0.0088,-0.0082,-0.0075,-0.0078,-0.0141,-0.0142,-0.0257,-0.0259,-0.026]}],[{"header":{"parameterUnit":"m.s-1","parameterCategory":2,"la1":30.2991,"la2":30.254,"lo1":-89.0895,"lo2":-89.0444,"dy":0.0017,"dx":0.0017,"nx":28,"ny":28,"refTime":"2024-02-22T03:00:00:Z","depth":"2","parameterNumber":2,"parameterNumberName":"U-component_of_CURRENTS"},"data":[0,0,0,0,0,0,0,0,0,0,0,0,0,0,0,0,0,0,0,0,0,0,0,0,0,0,0,0,0,0,0,0,0,0,0,0,0,0,0,0,0,0,0,0,0,0,0,0,0,0,0,0,0,0,0,0,0,0,0.1682,0.1682,0,0.1672,0.1672,0.1671,0.1671,0.1671,0.1672,0.1672,0.1673,0.1673,0.1673,0,0,0,0,0,0,0,0,0,0,0,0,0,0.1694,0.1694,0.1682,0.1682,0.1682,0.1672,0.1672,0.1671,0.1671,0.1671,0.1672,0.1672,0.1673,0.1673,0.1673,0,0,0,0,0,0,0,0,0,0,0,0,0,0.1685,0.1694,0.1682,0.1682,0.1682,0.1672,0.1672,0.1671,0.1671,0.1671,0.1672,0.1672,0.1673,0.1673,0.1673,0.1663,0,0,0.1672,0.1672,0,0,0,0,0,0,0,0,0.1686,0.1685,0.1682,0.1682,0.1682,0.1674,0.1676,0.167,0.1671,0.1674,0.1672,0.1672,0.1675,0.1675,0.167,0.1663,0.1663,0.1672,0.1672,0.1672,0.1671,0,0,0,0,0,0,0,0.1687,0.1685,0.1677,0.1682,0.1682,0.168,0.1679,0.1675,0.1672,0.1673,0.1674,0.1675,0.1675,0.167,0.167,0.1663,0.1672,0.1672,0.1671,0.1671,0.1709,0.171,0,0,0,0,0,0,0.1691,0.1686,0.1677,0.1676,0.1686,0.1679,0.1678,0.1675,0.1671,0.1671,0.1674,0.1675,0.167,0.167,0.167,0.171,0.1672,0.1671,0.1671,0.1707,0.1709,0.171,0,0,0,0,0,0,0.1691,0.169,0.1677,0.1682,0.1681,0.1679,0.1675,0.1675,0.1686,0.1672,0.1672,0.1688,0.1671,0.1671,0.1685,0.1708,0.1671,0.1671,0.1706,0.1708,0.1709,0.1756,0,0,0,0,0,0,0.1691,0.169,0.1694,0.1682,0.1681,0.1684,0.1675,0.1674,0.1685,0.1686,0.1683,0.1683,0.1671,0.1686,0.1685,0.1707,0.1671,0.1705,0.1707,0.1709,0.1753,0.1759,0.1764,0,0,0,0,0,0.1691,0.1692,0.1694,0.1693,0.1684,0.1685,0.1684,0.1683,0.1686,0.1693,0.1696,0.1684,0.1699,0.1686,0.1685,0.1707,0.1703,0.1706,0.1709,0.175,0.1758,0.1764,0,0,0,0,0,0,0.17,0.1692,0.1694,0.1693,0.1696,0.1686,0.1692,0.1693,0.17,0.1705,0.1694,0.1694,0.1719,0.1707,0.1693,0.1726,0.1701,0.1704,0.1734,0.1741,0.1746,0.1756,0.167,0,0,0,0,0,0.1704,0.1703,0.17,0.1702,0.1705,0.1703,0.1705,0.1707,0.1708,0.1712,0.1711,0.1714,0.1725,0.1728,0.1732,0.1744,0.1742,0.176,0.1766,0.1771,0.1779,0.18,0.1808,0.1719,0.1719,0.1719,0,0,0.1706,0.1704,0.1703,0.1704,0.1705,0.1711,0.1705,0.1715,0.1726,0.1711,0.1729,0.1736,0.1735,0.1754,0.1763,0.1748,0.1794,0.1774,0.1778,0.1784,0.1803,0.1812,0.182,0.1721,0.172,0.172,0,0,0.1708,0.1712,0.1712,0.1718,0.1727,0.1727,0.1736,0.1737,0.1747,0.1764,0.1764,0.1788,0.179,0.1799,0.1804,0.1843,0.1828,0.1844,0.1876,0.1896,0.1904,0.191,0.1915,0.1922,0.1843,0.1843,0.1843,0,0.1714,0.1711,0.1714,0.1721,0.1728,0.1738,0.1746,0.1757,0.1765,0.178,0.1779,0.1812,0.1815,0.1845,0.1864,0.1857,0.1859,0.1848,0.1904,0.191,0.1916,0.192,0.1926,0.1845,0.1845,0.1845,0.1845,0,0.1715,0.1719,0.1723,0.1733,0.1744,0.1753,0.177,0.179,0.1806,0.1817,0.1858,0.1867,0.1886,0.1896,0.1894,0.194,0.1924,0.1912,0.1885,0.1928,0.1929,0.1935,0.1849,0.1848,0.1847,0.1847,0,0,0.1704,0.1719,0.1721,0.1727,0.1752,0.1757,0.1791,0.1817,0.1843,0.1868,0.1901,0.1936,0.1948,0.1955,0.1959,0.1982,0.2029,0.1969,0.1969,0.1972,0.2066,0.1992,0.1992,0.2026,0.2027,0.2028,0.2048,0,0.1704,0.1712,0.1725,0.174,0.1745,0.1774,0.1801,0.1833,0.1865,0.1901,0.1935,0.1968,0.1967,0.1986,0.2012,0.203,0.2048,0.2025,0.2026,0.2026,0.1954,0.1997,0.1833,0.1832,0.2054,0.2055,0.2055,0,0.1695,0.1702,0.1715,0.1739,0.1746,0.1766,0.1815,0.1843,0.1903,0.1931,0.1977,0.1999,0.2052,0.204,0.2091,0.2076,0.2079,0.2086,0.2086,0.2007,0.1964,0.1826,0.1834,0.2065,0.2065,0.2064,0.2063,0,0.1672,0.1693,0.1703,0.1711,0.1745,0.177,0.1799,0.1856,0.1885,0.1959,0.1989,0.2043,0.2076,0.2101,0.2122,0.2113,0.2165,0.2147,0.208,0.2074,0.1928,0.1907,0.2178,0.2178,0.2178,0.2178,0.2178,0,0.1656,0.1661,0.1696,0.17,0.1723,0.176,0.18,0.1842,0.1905,0.1938,0.2004,0.2034,0.2096,0.2127,0.2138,0.2128,0.2175,0.2096,0.208,0.1939,0.1919,0.2116,0.2108,0.2179,0.2179,0.2179,0.2179,0,0.1623,0.1644,0.1655,0.1695,0.171,0.1733,0.1792,0.1817,0.1889,0.1939,0.1965,0.2042,0.2083,0.2122,0.2164,0.2136,0.2141,0.2119,0.1944,0.1907,0.2031,0.2026,0.2051,0.2048,0.2047,0.2045,0.2044,0,0.1605,0.1608,0.1646,0.1654,0.1674,0.1712,0.1733,0.1804,0.1832,0.1928,0.1943,0.2012,0.2032,0.2068,0.2042,0.2036,0.2096,0.187,0.1823,0.2039,0.2021,0.2019,0.2017,0.1649,0.1644,0.1641,0.1638,0,0.1571,0.159,0.1599,0.1617,0.1638,0.1656,0.1697,0.1713,0.1792,0.1826,0.187,0.1901,0.1938,0.1855,0.1851,0.1826,0.186,0.1793,0.2073,0.1704,0.1661,0.1643,0.1654,0.1605,0.1608,0.1611,0.1613,0.1614,0.1546,0.1544,0.1559,0.1565,0.1586,0.1589,0.1574,0.1612,0.1631,0.1657,0.1742,0.1724,0.1737,0.1642,0.1584,0.1538,0.1669,0.1589,0.1601,0.1616,0.1563,0.1518,0.1426,0.1428,0.143,0.1431,0.1433,0,0.1496,0.1497,0.1502,0.1497,0.1479,0.1523,0.1528,0.1489,0.1463,0.1515,0.153,0.1398,0.1336,0.1355,0.1228,0.1214,0.1207,0.1167,0.1144,0.1177,0.1206,0.1133,0.0882,0.088,0.0878,0.0877,0,0,0.147,0.1444,0.1436,0.1381,0.1381,0.1333,0.1315,0.1275,0.1277,0.1233,0.1207,0.1299,0.1324,0.1095,0.1053,0.0946,0.106,0.0909,0.1352,0.136,0.1388,0.1451,0.1376,0,0,0,0,0]},{"header":{"parameterUnit":"m.s-1","parameterCategory":2,"la1":30.2991,"la2":30.254,"lo1":-89.0895,"lo2":-89.0444,"dy":0.0017,"dx":0.0017,"nx":28,"ny":28,"refTime":"2024-02-22T03:00:00:Z","depth":"2","parameterNumber":3,"parameterNumberName":"V-component_of_CURRENTS"},"data":[0,0,0,0,0,0,0,0,0,0,0,0,0,0,0,0,0,0,0,0,0,0,0,0,0,0,0,0,0,0,0,0,0,0,0,0,0,0,0,0,0,0,0,0,0,0,0,0,0,0,0,0,0,0,0,0,0,0,0.0129,0.0129,0,0.0125,0.0125,0.0125,0.0115,0.0115,0.0115,0.0115,0.0092,0.0091,0.0091,0,0,0,0,0,0,0,0,0,0,0,0,0,0.0109,0.011,0.0129,0.0129,0.0129,0.0125,0.0125,0.0125,0.0115,0.0115,0.0115,0.0115,0.0092,0.0092,0.0091,0,0,0,0,0,0,0,0,0,0,0,0,0,0.0113,0.011,0.0129,0.0123,0.0123,0.0125,0.0125,0.0125,0.0115,0.0115,0.0115,0.0114,0.0092,0.0092,0.0091,0.0093,0,0,0.0089,0.0089,0,0,0,0,0,0,0,0,0.0113,0.0113,0.0124,0.0124,0.0123,0.0121,0.011,0.0114,0.0115,0.0118,0.0115,0.0114,0.01,0.0099,0.0099,0.0092,0.0091,0.0089,0.0089,0.0088,0.0088,0,0,0,0,0,0,0,0.0112,0.0113,0.0127,0.0124,0.0124,0.0115,0.0116,0.0111,0.011,0.0118,0.0117,0.0117,0.01,0.0099,0.0098,0.0091,0.0089,0.0088,0.0088,0.0088,0.0082,0.0082,0,0,0,0,0,0,0.0115,0.0113,0.0127,0.0127,0.0117,0.0116,0.0116,0.0122,0.0111,0.0109,0.0117,0.0117,0.0101,0.0099,0.0097,0.0105,0.0088,0.0088,0.0087,0.0082,0.0082,0.0083,0,0,0,0,0,0,0.0114,0.0116,0.0127,0.012,0.0121,0.0117,0.0123,0.0122,0.0121,0.0111,0.0108,0.0117,0.01,0.0098,0.0094,0.0104,0.0087,0.0087,0.0082,0.0082,0.0082,0.0117,0,0,0,0,0,0,0.0114,0.0116,0.0119,0.012,0.0121,0.0133,0.0123,0.0122,0.0121,0.012,0.011,0.0108,0.01,0.0095,0.0093,0.0103,0.0086,0.0081,0.0082,0.0082,0.0116,0.0119,0.0121,0,0,0,0,0,0.0113,0.0122,0.012,0.0121,0.0127,0.0134,0.0134,0.0129,0.0122,0.0126,0.0116,0.0108,0.0097,0.0095,0.0093,0.0102,0.0081,0.0082,0.0082,0.0115,0.0118,0.0121,0,0,0,0,0,0,0.0115,0.0122,0.0119,0.013,0.0132,0.0132,0.0136,0.0131,0.0127,0.0124,0.0111,0.0108,0.0108,0.0099,0.0098,0.0101,0.0087,0.0088,0.0113,0.0116,0.0119,0.0133,0.0086,0,0,0,0,0,0.0117,0.0127,0.013,0.0138,0.014,0.0137,0.0138,0.0136,0.0133,0.0131,0.0122,0.0113,0.011,0.0108,0.0101,0.0104,0.0091,0.0108,0.0111,0.0113,0.0123,0.0111,0.0113,0.0084,0.0084,0.0084,0,0,0.0119,0.0125,0.0129,0.0139,0.014,0.0152,0.0137,0.0143,0.0153,0.0129,0.0135,0.0121,0.0112,0.0115,0.0114,0.0109,0.0113,0.0114,0.0116,0.0125,0.0112,0.0114,0.0117,0.0085,0.0084,0.0084,0,0,0.0133,0.0135,0.0149,0.0154,0.016,0.0161,0.0163,0.0163,0.0163,0.0166,0.0152,0.0145,0.0137,0.0135,0.0133,0.0146,0.0126,0.0141,0.0169,0.0157,0.016,0.0162,0.0142,0.0142,0.0144,0.0144,0.0144,0,0.0134,0.0155,0.0153,0.0169,0.0178,0.0167,0.0186,0.0186,0.0184,0.0189,0.0172,0.0164,0.015,0.0162,0.0165,0.0154,0.014,0.0159,0.0161,0.0163,0.0165,0.0144,0.0143,0.0146,0.0146,0.0146,0.0145,0,0.0161,0.0177,0.0186,0.0205,0.0214,0.0228,0.0231,0.0235,0.0228,0.0227,0.0231,0.0209,0.0205,0.0198,0.0186,0.0194,0.0177,0.0165,0.0155,0.017,0.0147,0.0146,0.0148,0.0148,0.0147,0.0147,0,0,0.0171,0.02,0.0204,0.0224,0.0236,0.025,0.0266,0.0283,0.03,0.0283,0.0302,0.0284,0.0266,0.0262,0.0242,0.0231,0.0221,0.0205,0.0204,0.019,0.0188,0.0179,0.0176,0.0209,0.0209,0.0209,0.0165,0,0.0195,0.0235,0.0243,0.0283,0.0306,0.0306,0.0327,0.0338,0.0338,0.035,0.0327,0.0333,0.0293,0.0292,0.0273,0.0241,0.0221,0.0234,0.0173,0.0171,0.0164,0.0176,0.0185,0.0147,0.0164,0.0163,0.0163,0,0.0222,0.0249,0.0292,0.0334,0.0345,0.0366,0.0401,0.0418,0.0427,0.0427,0.0418,0.0397,0.0383,0.0344,0.0289,0.0298,0.0246,0.0213,0.021,0.0192,0.0161,0.0136,0.0144,0.0161,0.0161,0.0162,0.0162,0,0.0241,0.0286,0.0325,0.0338,0.0379,0.0402,0.0423,0.0442,0.047,0.0477,0.0492,0.0459,0.0452,0.0388,0.0309,0.03,0.0244,0.0221,0.0161,0.0159,0.0151,0.0149,0.0178,0.0178,0.0178,0.0178,0.0179,0,0.027,0.0302,0.034,0.0362,0.0419,0.0433,0.0488,0.0502,0.053,0.0573,0.0533,0.0553,0.0464,0.0418,0.0333,0.0247,0.0257,0.0172,0.0152,0.0162,0.0162,0.0163,0.0162,0.0177,0.0177,0.0177,0.0178,0,0.0288,0.0309,0.036,0.0409,0.0431,0.0471,0.0537,0.0576,0.0593,0.0647,0.0654,0.0627,0.0571,0.0472,0.0372,0.0288,0.0202,0.0164,0.0179,0.0162,0.0116,0.0117,0.0097,0.0097,0.0096,0.0096,0.0095,0,0.0302,0.0329,0.0394,0.043,0.0457,0.0519,0.0566,0.0605,0.0652,0.0696,0.0728,0.0691,0.0675,0.052,0.0372,0.0227,0.0202,0.0131,0.0117,0.0128,0.011,0.0112,0.0113,0.0112,0.0112,0.0112,0.0111,0,0.0331,0.0351,0.0393,0.0466,0.0523,0.0594,0.0664,0.0713,0.0766,0.0809,0.0852,0.0842,0.0703,0.0565,0.0365,0.026,0.0156,0.0123,0.0136,0.0135,0.0139,0.0122,0.0124,0.011,0.011,0.011,0.011,0.011,0.0352,0.0386,0.0438,0.0509,0.0576,0.0663,0.0727,0.0799,0.0881,0.0949,0.0935,0.0918,0.0762,0.0509,0.034,0.0152,0.0158,0.0083,0.0085,0.0086,0.01,0.0103,0.0069,0.0069,0.0069,0.0069,0.0069,0,0.0379,0.0417,0.048,0.0566,0.0638,0.0674,0.0789,0.0852,0.0948,0.0997,0.1026,0.0874,0.0719,0.0532,0.0265,0.0108,0.0091,0.0048,0.0065,0.0068,0.007,0.0083,0.0048,0.0047,0.0047,0.0047,0,0,0.0395,0.0452,0.0483,0.0601,0.0663,0.077,0.0839,0.0931,0.0991,0.1038,0.1024,0.099,0.0772,0.0574,0.0362,0.0209,0.0172,0.017,0.0203,0.0252,0.0256,0.0104,0.013,0,0,0,0,0]}],[{"header":{"parameterUnit":"m.s-1","parameterCategory":2,"la1":30.2991,"la2":30.254,"lo1":-89.0895,"lo2":-89.0444,"dy":0.0017,"dx":0.0017,"nx":28,"ny":28,"refTime":"2024-02-22T03:00:00:Z","depth":"4","parameterNumber":2,"parameterNumberName":"U-component_of_CURRENTS"},"data":[0,0,0,0,0,0,0,0,0,0,0,0,0,0,0,0,0,0,0,0,0,0,0,0,0,0,0,0,0,0,0,0,0,0,0,0,0,0,0,0,0,0,0,0,0,0,0,0,0,0,0,0,0,0,0,0,0,0,0.0826,0.0826,0,0.0855,0.0855,0.0855,0.0888,0.0888,0.0889,0.089,0.0924,0.0924,0.0925,0,0,0,0,0,0,0,0,0,0,0,0,0,0.0808,0.0808,0.0826,0.0826,0.0827,0.0855,0.0855,0.0855,0.0888,0.0889,0.0889,0.089,0.0924,0.0924,0.0925,0,0,0,0,0,0,0,0,0,0,0,0,0,0.0823,0.0808,0.0826,0.0847,0.085,0.0854,0.0855,0.0855,0.0888,0.0889,0.0889,0.089,0.0924,0.0924,0.0925,0.091,0,0,0.0926,0.0927,0,0,0,0,0,0,0,0,0.0822,0.0824,0.0844,0.0846,0.0849,0.087,0.0861,0.0874,0.0887,0.0872,0.089,0.0891,0.0906,0.0908,0.091,0.0911,0.0913,0.0926,0.0927,0.0927,0.0927,0,0,0,0,0,0,0,0.0821,0.0823,0.0836,0.0844,0.0847,0.0859,0.0862,0.0864,0.0883,0.0873,0.0876,0.0881,0.0908,0.0909,0.0911,0.0913,0.0926,0.0927,0.0927,0.0927,0.0981,0.0982,0,0,0,0,0,0,0.0819,0.0821,0.0835,0.0837,0.0839,0.0858,0.0862,0.0861,0.0883,0.0887,0.088,0.0882,0.0908,0.091,0.0912,0.0962,0.0927,0.0927,0.0928,0.098,0.0982,0.0983,0,0,0,0,0,0,0.0818,0.0819,0.0834,0.0831,0.0834,0.0858,0.0857,0.0861,0.0888,0.0888,0.0893,0.0906,0.0909,0.0912,0.0936,0.0961,0.0928,0.0928,0.0979,0.0981,0.0982,0.102,0,0,0,0,0,0,0.0817,0.0819,0.0828,0.0831,0.0834,0.0853,0.0856,0.0861,0.0889,0.0893,0.0911,0.0914,0.091,0.0936,0.0937,0.0962,0.0929,0.0978,0.098,0.0982,0.1017,0.1022,0.1027,0,0,0,0,0,0.0816,0.0821,0.0828,0.083,0.0842,0.0854,0.0857,0.0876,0.089,0.0904,0.0918,0.0915,0.095,0.0937,0.0938,0.0963,0.0977,0.0979,0.0982,0.1015,0.1021,0.1027,0,0,0,0,0,0,0.0822,0.0825,0.0833,0.084,0.0855,0.086,0.0877,0.0889,0.0911,0.0923,0.0924,0.0927,0.096,0.0956,0.0941,0.0986,0.0965,0.0968,0.099,0.0996,0.1001,0.1009,0.0929,0,0,0,0,0,0.0825,0.0831,0.0838,0.0849,0.0857,0.0872,0.0884,0.0898,0.0912,0.0924,0.0937,0.0952,0.0966,0.0977,0.0986,0.1006,0.101,0.1026,0.1031,0.1035,0.1043,0.1071,0.1079,0.0991,0.0991,0.0991,0,0,0.083,0.0835,0.0839,0.0851,0.0864,0.0878,0.0882,0.0907,0.0926,0.0923,0.096,0.0971,0.0975,0.1001,0.1016,0.1005,0.1062,0.1039,0.1042,0.1048,0.1075,0.1083,0.1091,0.0993,0.0992,0.0992,0,0,0.0838,0.0848,0.0855,0.0868,0.0892,0.0899,0.0913,0.0933,0.0953,0.0983,0.0989,0.1017,0.1036,0.1045,0.1051,0.1089,0.1087,0.1097,0.1129,0.1156,0.1163,0.117,0.118,0.1188,0.11,0.11,0.11,0,0.0849,0.0852,0.0862,0.0875,0.0889,0.0912,0.0927,0.0948,0.0977,0.0997,0.1004,0.105,0.1056,0.1087,0.1104,0.1101,0.1112,0.1103,0.1162,0.1169,0.1175,0.1184,0.1192,0.1102,0.1102,0.1101,0.1101,0,0.0855,0.0869,0.0877,0.0897,0.0915,0.0934,0.0958,0.0989,0.1018,0.1038,0.1086,0.1099,0.1129,0.1136,0.1133,0.1182,0.1174,0.1164,0.1145,0.1186,0.1193,0.12,0.1105,0.1104,0.1103,0.1103,0,0,0.0851,0.0875,0.0882,0.0893,0.0928,0.094,0.0982,0.1017,0.1051,0.109,0.1134,0.1165,0.1186,0.1194,0.12,0.1224,0.1275,0.122,0.1221,0.1228,0.1332,0.1229,0.1227,0.1281,0.1282,0.1283,0.1317,0,0.0856,0.0874,0.089,0.0918,0.0928,0.0965,0.0998,0.104,0.1081,0.113,0.1163,0.1207,0.1203,0.123,0.1256,0.1276,0.1297,0.1267,0.1294,0.1294,0.1196,0.1233,0.1289,0.1322,0.1324,0.1325,0.1326,0,0.0854,0.0866,0.0889,0.0923,0.0933,0.0962,0.1022,0.1057,0.1129,0.1166,0.1221,0.125,0.1306,0.1293,0.135,0.1335,0.1342,0.1347,0.1348,0.1245,0.1205,0.1275,0.1339,0.1338,0.1337,0.1336,0.1335,0,0.083,0.0864,0.0881,0.0893,0.0939,0.0971,0.1007,0.1076,0.1114,0.1202,0.1246,0.1304,0.1351,0.1376,0.1397,0.1387,0.1447,0.1427,0.1335,0.1328,0.1393,0.1386,0.1462,0.1462,0.1461,0.1461,0.1461,0,0.0812,0.0829,0.0877,0.0886,0.0924,0.0966,0.1021,0.1071,0.1148,0.1197,0.127,0.1313,0.1379,0.1418,0.1421,0.14,0.1467,0.1348,0.1334,0.1407,0.1401,0.1398,0.139,0.1463,0.1462,0.1462,0.1462,0,0.0778,0.0807,0.0831,0.0887,0.0912,0.0944,0.1025,0.106,0.1147,0.1217,0.1252,0.1344,0.1392,0.1429,0.1471,0.1421,0.1414,0.1385,0.1463,0.1452,0.127,0.1264,0.1287,0.1284,0.1281,0.1279,0.1277,0,0.0757,0.0765,0.0828,0.085,0.0881,0.0937,0.0973,0.1057,0.1095,0.1218,0.1243,0.1329,0.1375,0.1354,0.1396,0.1387,0.1364,0.1347,0.1305,0.127,0.1255,0.1253,0.1251,0.1272,0.1272,0.1271,0.127,0,0.0717,0.075,0.077,0.0816,0.0858,0.0893,0.0955,0.0974,0.1071,0.116,0.1205,0.1229,0.1275,0.1294,0.1298,0.1287,0.1353,0.1318,0.1323,0.1284,0.1253,0.124,0.1241,0.1261,0.1262,0.1263,0.1264,0,0.0695,0.0699,0.0735,0.0769,0.0817,0.0835,0.0872,0.0914,0.0961,0.1092,0.1102,0.1188,0.1267,0.1242,0.1246,0.1229,0.1202,0.1149,0.1162,0.1173,0.1117,0.106,0.1003,0,0,0,0,0,0.0667,0.0662,0.0685,0.071,0.0754,0.0783,0.0852,0.0889,0.0984,0.0985,0.104,0.1076,0.1091,0.1131,0.1088,0.1182,0.12,0.1125,0.1145,0.1208,0.1219,0.1161,0,0,0,0,0,0,0.0647,0.0662,0.066,0.0655,0.0664,0.0701,0.0741,0.0803,0.0807,0.0909,0.0925,0.0999,0.1031,0.1105,0.1066,0.1075,0.106,0.1174,0.117,0.1201,0.1211,0.122,0.1165,0,0,0,0,0]},{"header":{"parameterUnit":"m.s-1","parameterCategory":2,"la1":30.2991,"la2":30.254,"lo1":-89.0895,"lo2":-89.0444,"dy":0.0017,"dx":0.0017,"nx":28,"ny":28,"refTime":"2024-02-22T03:00:00:Z","depth":"4","parameterNumber":3,"parameterNumberName":"V-component_of_CURRENTS"},"data":[0,0,0,0,0,0,0,0,0,0,0,0,0,0,0,0,0,0,0,0,0,0,0,0,0,0,0,0,0,0,0,0,0,0,0,0,0,0,0,0,0,0,0,0,0,0,0,0,0,0,0,0,0,0,0,0,0,0,0.016,0.016,0,0.0159,0.0159,0.0159,0.016,0.016,0.016,0.016,0.0154,0.0154,0.0154,0,0,0,0,0,0,0,0,0,0,0,0,0,0.0145,0.0146,0.016,0.016,0.016,0.0159,0.0159,0.0159,0.016,0.016,0.016,0.016,0.0154,0.0154,0.0154,0,0,0,0,0,0,0,0,0,0,0,0,0,0.0149,0.0146,0.016,0.016,0.016,0.0159,0.0159,0.0159,0.016,0.016,0.016,0.016,0.0154,0.0154,0.0154,0.0152,0,0,0.0153,0.0153,0,0,0,0,0,0,0,0,0.0149,0.015,0.016,0.016,0.016,0.0159,0.0152,0.0156,0.016,0.016,0.016,0.016,0.0155,0.0155,0.0155,0.0152,0.0152,0.0153,0.0153,0.0153,0.0153,0,0,0,0,0,0,0,0.0149,0.015,0.016,0.016,0.016,0.0154,0.0155,0.0152,0.0158,0.016,0.016,0.016,0.0155,0.0155,0.0155,0.0152,0.0153,0.0153,0.0153,0.0153,0.015,0.015,0,0,0,0,0,0,0.0149,0.015,0.016,0.016,0.0154,0.0154,0.0155,0.016,0.0158,0.0158,0.016,0.016,0.0156,0.0155,0.0155,0.0162,0.0153,0.0153,0.0153,0.015,0.015,0.015,0,0,0,0,0,0,0.0149,0.015,0.016,0.0154,0.0155,0.0155,0.016,0.016,0.0162,0.0157,0.0157,0.0162,0.0156,0.0155,0.0156,0.0162,0.0153,0.0152,0.015,0.015,0.015,0.0171,0,0,0,0,0,0,0.0149,0.015,0.0154,0.0154,0.0155,0.0163,0.016,0.016,0.0161,0.0162,0.016,0.0159,0.0156,0.0157,0.0156,0.0161,0.0152,0.015,0.015,0.015,0.017,0.0171,0.0173,0,0,0,0,0,0.0148,0.0154,0.0155,0.0156,0.0161,0.0163,0.0163,0.0163,0.0162,0.0165,0.0163,0.0159,0.0157,0.0157,0.0156,0.0161,0.015,0.015,0.015,0.0169,0.0171,0.0173,0,0,0,0,0,0,0.0149,0.0155,0.0155,0.0163,0.0164,0.0163,0.0166,0.0165,0.0166,0.0167,0.0161,0.0161,0.0163,0.0158,0.0158,0.016,0.0152,0.0152,0.0167,0.0169,0.017,0.0178,0.0152,0,0,0,0,0,0.0151,0.0159,0.0161,0.0167,0.0168,0.0168,0.0168,0.0169,0.0169,0.0169,0.0166,0.0164,0.0162,0.0163,0.016,0.0162,0.015,0.0164,0.0166,0.0167,0.0173,0.0154,0.0155,0.0151,0.0151,0.0151,0,0,0.0153,0.0157,0.0162,0.0168,0.0169,0.0177,0.0169,0.0173,0.018,0.0168,0.0176,0.0168,0.0163,0.0166,0.0167,0.0164,0.0161,0.0167,0.0169,0.0173,0.0154,0.0155,0.0155,0.0151,0.0151,0.0151,0,0,0.0161,0.0165,0.0175,0.0179,0.0183,0.0183,0.0186,0.0186,0.0188,0.0192,0.0185,0.0181,0.018,0.0177,0.0176,0.0183,0.0168,0.0181,0.0197,0.018,0.018,0.018,0.0161,0.0159,0.0183,0.0183,0.0183,0,0.0162,0.0178,0.0177,0.0187,0.0195,0.0188,0.0201,0.0202,0.0202,0.0206,0.0198,0.0193,0.0186,0.0192,0.0194,0.0187,0.0173,0.0192,0.0182,0.0181,0.0181,0.0162,0.016,0.0184,0.0184,0.0184,0.0184,0,0.0178,0.0192,0.0198,0.0212,0.0218,0.0228,0.023,0.0234,0.0232,0.0232,0.0233,0.0219,0.0218,0.0212,0.0206,0.0203,0.0192,0.0184,0.0178,0.0183,0.0162,0.016,0.0186,0.0185,0.0185,0.0185,0,0,0.0181,0.0205,0.0209,0.0225,0.0235,0.0244,0.0255,0.0266,0.0277,0.0266,0.0277,0.0265,0.0254,0.0251,0.0238,0.0222,0.0204,0.0205,0.0203,0.0188,0.0162,0.0153,0.0149,0.0191,0.0191,0.0191,0.0147,0,0.0197,0.0226,0.0233,0.0263,0.028,0.0282,0.0297,0.0304,0.0303,0.0308,0.029,0.0294,0.0271,0.0271,0.025,0.0218,0.0198,0.0216,0.0158,0.0157,0.0149,0.0146,0.019,0.0145,0.0145,0.0144,0.0144,0,0.0211,0.0232,0.0266,0.03,0.0307,0.0324,0.0349,0.0361,0.0362,0.0361,0.0353,0.0337,0.0319,0.0295,0.024,0.0252,0.021,0.0179,0.0176,0.0161,0.0143,0.014,0.0139,0.0139,0.014,0.014,0.014,0,0.0221,0.0256,0.0288,0.0299,0.0331,0.0351,0.0369,0.0379,0.0398,0.0397,0.0404,0.0373,0.0366,0.0309,0.0244,0.0242,0.0175,0.0164,0.0114,0.0113,0.0126,0.0126,0.012,0.012,0.012,0.012,0.012,0,0.0236,0.0262,0.0299,0.0317,0.0362,0.0375,0.0416,0.0425,0.0442,0.0466,0.0436,0.044,0.0368,0.0321,0.0254,0.0177,0.0181,0.0118,0.0102,0.0135,0.0136,0.0123,0.0124,0.0118,0.0119,0.0119,0.0119,0,0.0244,0.0265,0.0306,0.0349,0.0369,0.0402,0.0455,0.048,0.0491,0.052,0.0523,0.0492,0.0433,0.0351,0.0259,0.0198,0.0121,0.009,0.0132,0.0119,0.0067,0.007,0.0034,0.0033,0.0033,0.0032,0.0032,0,0.025,0.0272,0.0331,0.0361,0.0386,0.0438,0.0474,0.0504,0.0532,0.0551,0.0564,0.0521,0.0487,0.0351,0.026,0.0129,0.0107,0.0063,0.0063,0.0071,0.0059,0.0062,0.0066,0.0031,0.0031,0.0031,0.0031,0,0.0264,0.0285,0.032,0.0381,0.0429,0.0484,0.0537,0.0561,0.0595,0.0605,0.0598,0.0532,0.0464,0.0355,0.0252,0.0157,0.0091,0.0057,0.0058,0.0057,0.0067,0.0056,0.006,0.0029,0.0029,0.0029,0.0029,0,0.0275,0.03,0.0345,0.04,0.0459,0.0516,0.0545,0.0581,0.061,0.0627,0.0622,0.0549,0.0509,0.0369,0.0275,0.0181,0.0155,0.0118,0.0114,0.0115,0.0149,0.0174,0.0156,0,0,0,0,0,0.0284,0.0312,0.0361,0.0422,0.0479,0.0517,0.0581,0.0604,0.0635,0.0634,0.063,0.0565,0.0433,0.0378,0.0282,0.0256,0.0133,0.0139,0.0087,0.0018,0.002,0.0044,0,0,0,0,0,0,0.0292,0.0334,0.0358,0.043,0.0472,0.054,0.0583,0.0606,0.0607,0.062,0.0552,0.0529,0.0401,0.0484,0.0275,0.0248,0.0199,0.0082,0.008,0.0016,0.0018,0.002,0.0046,0,0,0,0,0]}]]